User: anonymous   Login
Location: ??????
(30.5519°N, 47.7720°E)
Time: 02:22:57
(UTC+00:00)
Language:

Cosmos 990 Rocket - Orbit

View from above orbital plane
View from above orbital plane
View from above satellite
View from above satellite

Ground track
Ground track

The orbit data is extracted from the following two-line orbital elements,

1 10677U 78019B   21106.80427989  .00000067  00000-0  29735-4 0  9996
2 10677  74.0383 235.2265 0015959 322.1879  37.8154 14.40175944263978
Epoch (UTC): 16 April 2021 19:18:09
Eccentricity: 0.0015959
inclination: 74.0383°
perigee height: 746 km
apogee height: 769 km
right ascension of ascending node: 235.2265°
argument of perigee: 322.1879°
revolutions per day: 14.40175944
mean anomaly at epoch: 37.8154°
orbit number at epoch: 26397

The dashed part of the orbit path shows where the satellite is in the earth's shadow,  

DLR